Forside
METAR-TAF:

METAR-TAF

Lufthavne :

Wittman Regional Airport

Oshkosh, Wisconsin, USA

Breddekreds: 43-58-00N, længdekreds: 088-33-29W, højde: 246 m

Aktuelle vejr

Denne rapport blev lavet for 1 time og 7 minutter siden, kl. 01:53 UTC
Vind 4 kt fra sydsydøst
Temperatur 21°C
Fugtighed 83%
Tryk 1012 hPa
Sigt: 16.1 km
skyfri

METAR: KOSH 250153Z 15004KT 10SM CLR 21/18 A2988 RMK AO2 SLP109 T02110178

Tid: 22:00 (03:00 UTC)


TAF: fraværende

Vejrobservationer og prognoser fra mere end 4000 lufthavne (METAR og TAF).

De gule og røde prikker repræsenterer de meteorologiske stationer.

Flyt musen over at se navnet på stationen.

Så klik over at se vejr observationer og prognoser.

At skifte det kort: Klik på de grønne knapper med et sort kors for at zoome ind; på den grønne knap med en bindestreg for at zoome ud; eller på de grønne pile for tilstødende kort.


METAR-TAF: